STARLINK-32424, 61548

Orbit data source: Space-Track

STARLINK-32424, 61548 is a payload satellite owned by SpaceX/Seattle (US) in LEO that was launched on Tue, 15 Oct 2024 UTC via an FALCON 9 launch vehicle from the Air Force Western Test Range (AFWTR). Payload-class satellites include a variety of spacecraft equipped with specific instruments for various scientific and technological missions. These include communications satellites like Starlink; space stations such as the ISS; scientific satellites like the Hubble; Earth observation satellites from companies like Planet Labs, Umbra, and HawkEye 360; GPS; miniature CubeSats for education and research; and military/defense satellites.

Loading next visibility...
Identifier
61548, 2024-184S
Orbit
LEO
Country
Flag of USUS
Related business
Manufacturer
SpaceX/Seattle
Mission
Operational Commercial Communications
Bus & Motor
STARLINK V2M, Unknown motor
Mass
730 kg wet, ~700 kg dry
Launch date (UTC)
2024-10-15 (2 years ago)
Launch vehicle
FALCON 9
Launch site
Air Force Western Test Range (AFWTR)
Object type
Payload
Rocket body
Debris
Shape & HBR
Box + 2 Pan, 17.7 m
Radar Cross Section
33.884 m², Large (>1 m²)

Expand to show TLE details & history
Last TLE update: 1 day ago

TLE from 1 day ago
0 STARLINK-32424
1 61548U 24184S   26170.56941535 -.00000682  00000-0 -90515-5 0  9990
2 61548  53.1610 260.1277 0001074  80.9270 279.1854 15.34393306 94113
Epoch: 2026-06-19T13:39Z
TLE epoch observation values (Epoch: 2026-06-19T13:39:57.486Z)
Latitude
-0.00002°
Longitude
147.34165°
Altitude
463.507 km
Speed
7.636 km/s
True Right ascension
17h 20m 30s
True Declination
0° 00' 00"
Sunlit
Object was in full shadow at epoch
Visualization orbit readout
Latitude
Unknown
Longitude
Unknown
Altitude
Unknown
Speed
Unknown
Apparent Right ascension
Unknown
Apparent Declination
Unknown
Sunlit
N/A
Visualization observer readout
Local Sidereal Time
07:17:02
Azimuth
Unknown
Elevation
Unknown
Doppler factor
Unknown
Orbital elements
Apogee altitude
463.715 km
Perigee altitude
462.245 km
Semi-major axis
6,841.117 km
Eccentricity
0.00011
Inclination
53.161°
RAAN
260.1277°
Arg. of periapsis
80.927°
True anomaly
279.17325°
Mean anomaly
279.1854°
Eccentric anomaly
279.17933°
Mean motion
3.83577 °/min
Orbital period
93.85 mins
BSTAR
-0.0000090515
Loading maneuver chart data...
Computing Atmospheric mass density...
Loading historical data...
Loading historical data...
Loading historical data...
Loading historical data...
Loading historical data...
Loading historical data...
Loading historical data...

Documentation

Showing up to 5 results
|